Location: Palestine
(34.9737°N, 87.4542°W)
Time: 08:42:04
(UTC+00:00)

Hubble Space Telescope - Visible Passes

Search period start: 21 May 2026 00:00
Search period end: 31 May 2026 00:00
Orbit: 473 x 476 km, 28.5° (Epoch: 20 May)

Date Brightness Start Highest point End Pass type
(mag) Time Alt. Az. Time Alt. Az. Time Alt. Az.
24 May 2.2 10:05:09 10° SW 10:08:02 21° SSE 10:10:54 10° ESE visible
25 May 2.2 09:34:46 16° SSW 09:36:28 21° SSE 09:39:20 10° ESE visible
26 May 2.1 09:04:48 21° S 09:04:54 21° SSE 09:07:45 10° ESE visible
27 May 2.6 08:34:49 16° SE 08:34:49 16° SE 08:36:10 10° ESE visible
27 May 1.6 10:09:18 10° WSW 10:12:36 30° S 10:15:55 10° ESE visible
28 May 1.5 09:38:52 17° SW 09:41:01 30° S 09:44:20 10° ESE visible
29 May 1.4 09:08:58 29° SSW 09:09:25 30° S 09:12:43 10° ESE visible
30 May 2.1 08:39:08 23° SE 08:39:08 23° SE 08:41:07 10° ESE visible
